Location: *
(2.5500°S, 65.9667°W)
Time: 15:56:18
(UTC+00:00)

A-11 Canister half - Pass Details

Date: 17 April 2024
Orbit: 1525 x 1683 km, 47.3° (Epoch: 21 May)

Event Time Altitude Azimuth Distance (km) Brightness Sun altitude
Exits shadow 07:26:43 58° 97° (E) 1,842 9.4 -43.8°
Drops below altitude 10° 07:35:08 10° 51° (NE) 3,881 11.6 -41.8°
Sets 07:38:21 0° 48° (NE) 4,883 12.3 -41.0°
